contact:dominique.lefevre@mio.osupytheas.fr, maurice.libes@osupytheas.fr, didier.mallarino@osupytheas.fr
Project:EMSO http://www.emso-fr.org/EMSO-France
Depth: 2436.0 m
Title:EMSO Ligure Ouest : Data MII capteur AQUADOPP
Date,Latitude,Longitude,X_East,Y_North,Z_Up,Amplitude_X,Amplitude_Y,Amplitude_Z,Batterie,SoundSpeed,Heading,Pitch,Roll,Pressure,TIS,Speed,Direction
, degrees North, degrees East, m.s-1, m.s-1,m.s-1, 1, 1, 1, Volt, m.s-1, degree, degree, degree, dbar, degree_C, m.s-1, degree
2023-05-14T00:04:03,42.805,6.029,0.036,0.016,-0.007,101.0,102.0,100.0,13.4,1505.2,329.0,-0.8,1.8,2471.448,13.28,0.039,66.0
2023-05-14T00:07:03,42.805,6.029,0.033,-0.028,-0.034,101.0,102.0,101.0,13.4,1505.2,331.3,-0.7,1.8,2471.458,13.28,0.043,130.3
2023-05-14T00:10:03,42.805,6.029,0.047,-0.01,-0.044,101.0,103.0,101.0,13.4,1505.2,333.8,-0.8,1.8,2471.428,13.28,0.048,102.0
2023-05-14T00:13:03,42.805,6.029,0.0,0.008,-0.015,102.0,102.0,101.0,13.4,1505.2,327.5,-0.8,1.8,2471.445,13.29,0.008,0.0
2023-05-14T00:16:03,42.805,6.029,0.01,-0.006,-0.028,102.0,103.0,100.0,13.4,1505.2,343.4,-0.8,1.8,2471.419,13.29,0.011,121.0
2023-05-14T00:19:03,42.805,6.029,0.006,0.011,-0.015,102.0,102.0,100.0,13.4,1505.2,332.1,-0.8,1.8,2471.42,13.29,0.012,28.6
2023-05-14T00:22:03,42.805,6.029,0.041,-0.006,-0.038,102.0,100.0,100.0,13.4,1505.2,327.4,-0.8,1.8,2471.351,13.29,0.041,98.3
2023-05-14T00:25:03,42.805,6.029,0.018,-0.006,-0.012,101.0,101.0,101.0,13.4,1505.2,344.0,-0.7,1.8,2471.411,13.29,0.018,108.4
2023-05-14T00:28:03,42.805,6.029,0.067,-0.018,-0.033,101.0,104.0,101.0,13.4,1505.2,337.9,-0.8,1.8,2471.409,13.29,0.069,105.0
2023-05-14T00:31:03,42.805,6.029,0.025,0.017,-0.016,102.0,101.0,100.0,13.3,1505.2,324.6,-0.7,1.8,2471.414,13.29,0.03,55.8
2023-05-14T00:34:03,42.805,6.029,0.002,0.007,-0.035,102.0,101.0,100.0,13.4,1505.2,330.1,-0.8,1.8,2471.393,13.29,0.007,15.9
2023-05-14T00:37:03,42.805,6.029,0.025,0.012,-0.022,103.0,102.0,100.0,13.4,1505.2,329.8,-0.7,1.8,2471.431,13.29,0.027,64.4
2023-05-14T00:40:03,42.805,6.029,0.033,0.007,-0.015,102.0,102.0,100.0,13.4,1505.2,345.7,-0.8,1.8,2471.39,13.29,0.033,78.0
2023-05-14T00:43:03,42.805,6.029,0.014,-0.002,-0.022,101.0,101.0,101.0,13.4,1505.2,344.2,-0.8,1.8,2471.399,13.29,0.014,98.1
2023-05-14T00:46:03,42.805,6.029,0.052,0.01,-0.016,102.0,102.0,101.0,13.4,1505.2,337.9,-0.8,1.8,2471.403,13.29,0.052,79.1
2023-05-14T00:49:03,42.805,6.029,0.033,0.01,-0.013,103.0,101.0,100.0,13.4,1505.2,333.4,-0.8,1.8,2471.413,13.29,0.034,73.1
2023-05-14T00:52:03,42.805,6.029,0.035,0.0,-0.035,103.0,99.0,100.0,13.4,1505.2,319.9,-0.8,1.8,2471.433,13.29,0.035,90.0
2023-05-14T00:55:03,42.805,6.029,0.028,-0.005,-0.021,102.0,100.0,101.0,13.4,1505.2,334.3,-0.8,1.8,2471.446,13.29,0.028,100.1
2023-05-14T00:58:03,42.805,6.029,0.033,0.003,-0.03,102.0,101.0,101.0,13.4,1505.2,339.7,-0.7,1.8,2471.426,13.29,0.033,84.8
2023-05-14T01:01:03,42.805,6.029,0.027,0.006,-0.027,102.0,102.0,100.0,13.4,1505.2,330.2,-0.8,1.8,2471.405,13.29,0.027,77.5
2023-05-14T01:04:03,42.805,6.029,-0.001,0.011,-0.066,103.0,103.0,101.0,13.4,1505.2,323.1,-0.8,1.8,2471.45,13.29,0.011,354.8
2023-05-14T01:07:03,42.805,6.029,0.023,0.001,-0.03,103.0,102.0,101.0,13.4,1505.2,325.4,-0.7,1.8,2471.412,13.29,0.023,87.5
2023-05-14T01:10:03,42.805,6.029,0.023,-0.006,-0.007,102.0,104.0,100.0,13.4,1505.2,341.2,-0.7,1.8,2471.387,13.29,0.023,104.6
2023-05-14T01:13:03,42.805,6.029,0.025,0.008,-0.021,102.0,101.0,101.0,13.4,1505.2,332.4,-0.8,1.8,2471.421,13.29,0.026,72.3
2023-05-14T01:16:03,42.805,6.029,0.014,0.011,-0.031,102.0,101.0,101.0,13.4,1505.2,336.5,-0.8,1.8,2471.39,13.29,0.017,51.8
2023-05-14T01:19:03,42.805,6.029,0.048,-0.007,-0.026,102.0,102.0,101.0,13.4,1505.2,328.7,-0.8,1.8,2471.409,13.29,0.048,98.3
2023-05-14T01:22:03,42.805,6.029,0.041,0.008,-0.009,103.0,100.0,100.0,13.4,1505.2,345.9,-0.8,1.8,2471.429,13.29,0.041,79.0
2023-05-14T01:25:03,42.805,6.029,0.032,0.001,-0.022,101.0,101.0,101.0,13.4,1505.2,337.9,-0.7,1.9,2471.403,13.29,0.032,88.2
2023-05-14T01:28:03,42.805,6.029,0.027,0.001,-0.012,101.0,100.0,102.0,13.4,1505.2,327.5,-0.8,1.8,2471.419,13.29,0.027,87.9
2023-05-14T01:31:03,42.805,6.029,0.038,0.008,-0.022,100.0,100.0,101.0,13.4,1505.2,317.0,-0.8,1.8,2471.395,13.29,0.038,78.1
2023-05-14T01:34:03,42.805,6.029,0.018,0.0,-0.029,101.0,103.0,101.0,13.4,1505.2,333.4,-0.8,1.8,2471.454,13.29,0.018,90.0
2023-05-14T01:37:03,42.805,6.029,0.039,-0.016,-0.032,102.0,102.0,101.0,13.4,1505.2,330.0,-0.8,1.8,2471.415,13.29,0.042,112.3
2023-05-14T01:40:03,42.805,6.029,0.03,-0.001,-0.027,101.0,102.0,100.0,13.4,1505.2,341.2,-0.8,1.8,2471.455,13.29,0.03,91.9
2023-05-14T01:43:03,42.805,6.029,0.017,0.001,0.013,102.0,100.0,101.0,13.4,1505.2,326.0,-0.8,1.8,2471.412,13.29,0.017,86.6
2023-05-14T01:46:03,42.805,6.029,0.026,-0.005,-0.033,102.0,100.0,100.0,13.4,1505.2,335.8,-0.7,1.8,2471.397,13.29,0.026,100.9
2023-05-14T01:49:03,42.805,6.029,0.037,0.001,-0.028,102.0,100.0,101.0,13.4,1505.2,347.3,-0.8,1.8,2471.435,13.29,0.037,88.5
2023-05-14T01:52:03,42.805,6.029,0.018,0.018,-0.005,102.0,101.0,101.0,13.4,1505.2,332.9,-0.8,1.8,2471.456,13.29,0.025,45.0
2023-05-14T01:55:03,42.805,6.029,0.037,-0.029,-0.038,102.0,100.0,100.0,13.4,1505.2,333.9,-0.8,1.8,2471.457,13.29,0.047,128.1
2023-05-14T01:58:03,42.805,6.029,0.036,-0.013,-0.034,100.0,103.0,99.0,13.4,1505.2,334.2,-0.8,1.8,2471.439,13.29,0.038,109.9
2023-05-14T02:04:03,42.805,6.029,0.033,-0.01,-0.015,101.0,101.0,100.0,13.4,1505.2,345.4,-0.7,1.8,2471.436,13.28,0.034,106.9
2023-05-14T02:07:03,42.805,6.029,0.018,0.023,0.01,100.0,101.0,101.0,13.4,1505.2,333.4,-0.7,1.8,2471.462,13.28,0.029,38.0
2023-05-14T02:10:03,42.805,6.029,0.047,0.005,-0.026,102.0,102.0,100.0,13.3,1505.2,316.9,-0.8,1.8,2471.476,13.28,0.047,83.9
2023-05-14T02:13:03,42.805,6.029,0.035,0.01,0.005,101.0,102.0,100.0,13.4,1505.2,325.4,-0.8,1.8,2471.478,13.29,0.036,74.1
2023-05-14T02:16:03,42.805,6.029,0.033,-0.03,-0.037,102.0,101.0,101.0,13.4,1505.2,344.7,-0.8,1.8,2471.441,13.29,0.044,132.3
2023-05-14T02:19:03,42.805,6.029,0.017,0.009,-0.029,101.0,101.0,101.0,13.4,1505.2,322.7,-0.8,1.8,2471.456,13.29,0.019,62.1
2023-05-14T02:22:03,42.805,6.029,0.029,0.002,0.009,102.0,101.0,100.0,13.4,1505.2,342.8,-0.7,1.8,2471.424,13.29,0.029,86.1
2023-05-14T02:25:03,42.805,6.029,0.023,0.009,-0.029,102.0,100.0,100.0,13.4,1505.2,337.5,-0.8,1.8,2471.466,13.29,0.024,68.6
2023-05-14T02:28:03,42.805,6.029,0.039,-0.005,-0.024,101.0,100.0,101.0,13.4,1505.2,344.5,-0.8,1.8,2471.463,13.29,0.039,97.3
2023-05-14T02:31:03,42.805,6.029,0.044,-0.011,-0.02,102.0,102.0,100.0,13.4,1505.2,342.5,-0.7,1.8,2471.446,13.29,0.045,104.0
2023-05-14T02:34:03,42.805,6.029,0.025,0.017,-0.014,101.0,101.0,101.0,13.4,1505.2,335.4,-0.8,1.8,2471.423,13.29,0.03,55.8
2023-05-14T02:37:03,42.805,6.029,0.013,0.017,0.001,101.0,103.0,101.0,13.4,1505.2,327.1,-0.8,1.8,2471.4,13.29,0.021,37.4
2023-05-14T02:40:03,42.805,6.029,0.025,0.018,-0.023,102.0,101.0,99.0,13.4,1505.2,321.0,-0.8,1.8,2471.419,13.29,0.03,54.2
2023-05-14T02:43:03,42.805,6.029,0.0,0.033,0.0,102.0,101.0,101.0,13.4,1505.2,327.3,-0.8,1.8,2471.434,13.29,0.033,0.0
2023-05-14T02:46:03,42.805,6.029,0.035,0.003,-0.021,101.0,101.0,102.0,13.4,1505.2,345.6,-0.8,1.8,2471.421,13.29,0.035,85.1
2023-05-14T02:49:03,42.805,6.029,0.04,-0.006,-0.039,101.0,102.0,100.0,13.4,1505.2,333.8,-0.7,1.8,2471.422,13.29,0.04,98.5
2023-05-14T02:52:03,42.805,6.029,0.037,-0.011,0.003,102.0,103.0,101.0,13.4,1505.2,337.2,-0.8,1.8,2471.403,13.29,0.038,106.6
2023-05-14T02:55:03,42.805,6.029,0.013,0.016,-0.008,102.0,103.0,100.0,13.4,1505.2,331.9,-0.7,1.8,2471.42,13.29,0.02,39.1
2023-05-14T02:58:03,42.805,6.029,0.002,0.013,-0.012,102.0,100.0,101.0,13.4,1505.2,322.1,-0.8,1.8,2471.423,13.29,0.013,8.7
2023-05-14T03:04:03,42.805,6.029,0.014,0.022,0.014,102.0,101.0,100.0,13.4,1505.2,325.0,-0.8,1.8,2471.476,13.28,0.026,32.5
2023-05-14T03:07:03,42.805,6.029,0.034,0.012,-0.019,102.0,102.0,100.0,13.4,1505.2,328.7,-0.8,1.8,2471.458,13.28,0.036,70.6
2023-05-14T03:10:03,42.805,6.029,0.032,0.013,0.015,102.0,101.0,101.0,13.4,1505.2,341.9,-0.7,1.8,2471.459,13.28,0.034,67.9
2023-05-14T03:13:03,42.805,6.029,0.026,0.005,-0.011,101.0,102.0,100.0,13.4,1505.2,324.1,-0.8,1.9,2471.49,13.29,0.026,79.1
2023-05-14T03:16:03,42.805,6.029,0.041,0.028,0.0,102.0,103.0,100.0,13.4,1505.2,337.2,-0.7,1.8,2471.443,13.29,0.049,55.7
2023-05-14T03:19:03,42.805,6.029,0.034,0.007,0.009,102.0,101.0,101.0,13.4,1505.2,329.2,-0.8,1.8,2471.448,13.29,0.034,78.4
2023-05-14T03:22:03,42.805,6.029,0.019,0.008,-0.009,102.0,101.0,100.0,13.4,1505.2,319.3,-0.7,1.8,2471.455,13.29,0.02,67.2
2023-05-14T03:25:03,42.805,6.029,0.004,-0.015,-0.062,102.0,103.0,99.0,13.4,1505.2,333.0,-0.8,1.8,2471.479,13.29,0.015,165.1
2023-05-14T03:28:03,42.805,6.029,0.039,0.002,-0.025,103.0,100.0,101.0,13.4,1505.2,347.3,-0.7,1.9,2471.433,13.29,0.039,87.1
2023-05-14T03:31:03,42.805,6.029,0.029,0.012,-0.011,102.0,100.0,101.0,13.4,1505.2,335.8,-0.7,1.8,2471.438,13.29,0.031,67.5
2023-05-14T03:34:03,42.805,6.029,0.011,0.031,-0.019,101.0,101.0,100.0,13.4,1505.2,336.3,-0.7,1.8,2471.442,13.29,0.032,19.5
2023-05-14T03:37:03,42.805,6.029,0.05,-0.011,-0.032,102.0,101.0,101.0,13.4,1505.2,330.2,-0.8,1.8,2471.417,13.29,0.051,102.4
2023-05-14T03:40:03,42.805,6.029,0.018,0.019,-0.034,101.0,102.0,100.0,13.3,1505.2,344.3,-0.7,1.8,2471.41,13.29,0.026,43.5
2023-05-14T03:43:03,42.805,6.029,0.013,0.013,-0.031,101.0,101.0,100.0,13.4,1505.2,325.8,-0.7,1.8,2471.419,13.29,0.018,45.0
2023-05-14T03:46:03,42.805,6.029,0.035,0.015,-0.029,102.0,101.0,100.0,13.4,1505.2,326.3,-0.8,1.8,2471.44,13.29,0.038,66.8
2023-05-14T03:49:03,42.805,6.029,0.004,0.017,-0.002,101.0,103.0,99.0,13.4,1505.2,347.2,-0.8,1.8,2471.424,13.29,0.017,13.2
2023-05-14T03:52:03,42.805,6.029,-0.005,0.011,-0.046,101.0,102.0,100.0,13.4,1505.2,332.4,-0.8,1.8,2471.425,13.29,0.012,335.6
2023-05-14T03:55:03,42.805,6.029,0.034,0.004,-0.005,100.0,102.0,101.0,13.4,1505.2,341.5,-0.8,1.8,2471.427,13.29,0.034,83.3
2023-05-14T03:58:03,42.805,6.029,0.015,-0.002,-0.043,101.0,103.0,99.0,13.4,1505.2,324.1,-0.8,1.8,2471.406,13.29,0.015,97.6
2023-05-14T04:04:03,42.805,6.029,0.018,0.021,-0.004,102.0,102.0,100.0,13.4,1505.2,316.9,-0.8,1.8,2471.486,13.28,0.027,40.6
2023-05-14T04:07:03,42.805,6.029,-0.002,-0.002,-0.033,101.0,102.0,101.0,13.4,1505.2,327.4,-0.8,1.8,2471.445,13.28,0.002,225.0
2023-05-14T04:10:03,42.805,6.029,0.022,0.001,-0.029,100.0,101.0,101.0,13.4,1505.2,344.2,-0.8,1.8,2471.455,13.28,0.022,87.4
2023-05-14T04:13:03,42.805,6.029,0.024,0.01,-0.018,101.0,102.0,101.0,13.3,1505.2,320.1,-0.8,1.8,2471.45,13.29,0.026,67.4
2023-05-14T04:16:03,42.805,6.029,0.045,-0.009,-0.036,101.0,102.0,100.0,13.4,1505.2,327.3,-0.8,1.8,2471.407,13.29,0.045,101.3
2023-05-14T04:19:03,42.805,6.029,0.03,0.002,-0.02,103.0,102.0,100.0,13.4,1505.2,340.5,-0.8,1.8,2471.445,13.29,0.03,86.2
2023-05-14T04:22:03,42.805,6.029,0.017,0.006,-0.003,102.0,101.0,101.0,13.4,1505.2,329.8,-0.8,1.8,2471.428,13.29,0.018,70.6
2023-05-14T04:25:03,42.805,6.029,0.015,-0.001,0.002,101.0,102.0,100.0,13.4,1505.2,331.8,-0.7,1.8,2471.472,13.29,0.015,93.8
2023-05-14T04:28:03,42.805,6.029,0.021,-0.003,-0.023,101.0,100.0,102.0,13.4,1505.2,324.5,-0.8,1.9,2471.415,13.29,0.021,98.1
2023-05-14T04:31:03,42.805,6.029,0.008,0.025,-0.022,101.0,101.0,101.0,13.4,1505.2,325.4,-0.8,1.8,2471.425,13.29,0.026,17.7
2023-05-14T04:34:03,42.805,6.029,0.025,0.014,-0.012,101.0,102.0,100.0,13.4,1505.2,320.3,-0.8,1.8,2471.436,13.29,0.028,60.7
2023-05-14T04:37:03,42.805,6.029,-0.008,0.012,-0.058,101.0,101.0,101.0,13.4,1505.2,325.2,-0.8,1.8,2471.391,13.29,0.014,326.3
2023-05-14T04:40:03,42.805,6.029,0.036,-0.003,0.007,102.0,101.0,101.0,13.4,1505.2,341.1,-0.7,1.8,2471.382,13.29,0.036,94.8
2023-05-14T04:43:03,42.805,6.029,0.011,0.018,-0.009,103.0,100.0,101.0,13.4,1505.2,330.9,-0.8,1.8,2471.389,13.29,0.021,31.4
2023-05-14T04:46:03,42.805,6.029,0.013,-0.005,-0.035,102.0,101.0,100.0,13.4,1505.2,341.5,-0.8,1.8,2471.378,13.29,0.013,111.0
2023-05-14T04:49:03,42.805,6.029,0.033,0.017,-0.013,100.0,100.0,101.0,13.4,1505.2,318.8,-0.7,1.8,2471.401,13.29,0.037,62.7
2023-05-14T04:52:03,42.805,6.029,0.014,0.007,-0.015,101.0,103.0,99.0,13.4,1505.2,326.0,-0.8,1.8,2471.434,13.29,0.015,63.4
2023-05-14T04:55:03,42.805,6.029,0.035,0.01,-0.017,102.0,101.0,100.0,13.4,1505.2,340.4,-0.8,1.8,2471.389,13.29,0.036,74.1
2023-05-14T04:58:03,42.805,6.029,0.017,0.009,-0.034,103.0,102.0,99.0,13.4,1505.2,326.0,-0.8,1.8,2471.404,13.29,0.019,62.1
2023-05-14T05:04:03,42.805,6.029,0.012,0.032,0.024,102.0,101.0,101.0,13.4,1505.2,331.2,-0.8,1.8,2471.441,13.28,0.034,20.6
2023-05-14T05:07:03,42.805,6.029,0.036,0.01,0.0,101.0,102.0,100.0,13.3,1505.2,342.5,-0.8,1.9,2471.453,13.28,0.037,74.5
2023-05-14T05:10:03,42.805,6.029,0.016,0.025,-0.003,101.0,101.0,102.0,13.4,1505.2,333.9,-0.7,1.8,2471.419,13.28,0.029,32.6
2023-05-14T05:13:03,42.805,6.029,0.008,0.011,-0.046,101.0,101.0,100.0,13.4,1505.2,346.7,-0.8,1.8,2471.434,13.29,0.013,36.0
2023-05-14T05:16:03,42.805,6.029,0.021,0.014,-0.013,101.0,103.0,100.0,13.3,1505.2,335.4,-0.8,1.8,2471.411,13.29,0.025,56.3
2023-05-14T05:19:03,42.805,6.029,0.044,0.006,0.024,102.0,101.0,100.0,13.4,1505.2,339.0,-0.7,1.8,2471.408,13.29,0.044,82.2
2023-05-14T05:22:03,42.805,6.029,0.021,0.047,0.029,101.0,102.0,100.0,13.4,1505.2,327.5,-0.8,1.8,2471.397,13.29,0.051,24.1
2023-05-14T05:25:03,42.805,6.029,0.016,-0.005,-0.05,101.0,100.0,102.0,13.4,1505.2,342.5,-0.8,1.8,2471.399,13.29,0.016,107.4
2023-05-14T05:28:03,42.805,6.029,0.016,0.0,-0.036,101.0,101.0,101.0,13.4,1505.2,324.3,-0.7,1.8,2471.396,13.29,0.016,90.0
2023-05-14T05:31:03,42.805,6.029,0.027,-0.003,-0.038,102.0,102.0,101.0,13.4,1505.2,335.3,-0.8,1.8,2471.386,13.29,0.027,96.3
2023-05-14T05:34:03,42.805,6.029,0.034,-0.002,-0.014,102.0,100.0,101.0,13.4,1505.2,345.4,-0.8,1.8,2471.371,13.29,0.034,93.4
2023-05-14T05:37:03,42.805,6.029,0.026,0.027,0.003,102.0,101.0,100.0,13.4,1505.2,324.3,-0.8,1.8,2471.369,13.29,0.037,43.9
2023-05-14T05:40:03,42.805,6.029,0.02,0.012,0.0,102.0,102.0,101.0,13.4,1505.2,336.2,-0.8,1.8,2471.428,13.29,0.023,59.0
2023-05-14T05:43:03,42.805,6.029,0.037,-0.014,-0.031,101.0,101.0,101.0,13.4,1505.2,338.6,-0.8,1.8,2471.348,13.29,0.039,110.7
2023-05-14T05:46:03,42.805,6.029,0.02,-0.01,-0.024,102.0,102.0,100.0,13.3,1505.2,335.9,-0.8,1.8,2471.376,13.29,0.022,116.6
2023-05-14T05:49:03,42.805,6.029,0.027,0.005,-0.006,101.0,102.0,99.0,13.4,1505.2,317.5,-0.7,1.8,2471.362,13.29,0.027,79.5
2023-05-14T05:52:03,42.805,6.029,0.01,-0.013,-0.072,102.0,101.0,99.0,13.4,1505.2,332.1,-0.8,1.8,2471.363,13.29,0.016,142.4
2023-05-14T05:55:03,42.805,6.029,0.044,-0.018,-0.028,101.0,101.0,100.0,13.4,1505.2,343.7,-0.8,1.8,2471.366,13.29,0.047,112.2
2023-05-14T05:58:03,42.805,6.029,0.066,0.008,-0.002,103.0,100.0,101.0,13.4,1505.2,321.7,-0.7,1.8,2471.321,13.29,0.066,83.1
2023-05-14T06:04:03,42.805,6.029,0.02,0.021,-0.032,102.0,101.0,100.0,13.4,1505.2,336.9,-0.8,1.8,2471.414,13.28,0.028,43.6
2023-05-14T06:07:03,42.805,6.029,0.022,-0.004,-0.018,101.0,102.0,100.0,13.4,1505.2,333.9,-0.8,1.8,2471.389,13.28,0.022,100.3
2023-05-14T06:10:03,42.805,6.029,0.03,0.02,-0.022,101.0,102.0,100.0,13.4,1505.2,331.9,-0.7,1.8,2471.423,13.28,0.036,56.3
2023-05-14T06:13:03,42.805,6.029,0.019,0.003,-0.026,101.0,102.0,100.0,13.4,1505.2,345.2,-0.8,1.8,2471.398,13.29,0.019,81.0
2023-05-14T06:16:03,42.805,6.029,0.02,0.028,-0.009,101.0,100.0,101.0,13.4,1505.2,330.3,-0.8,1.8,2471.384,13.29,0.034,35.5
2023-05-14T06:19:03,42.805,6.029,0.034,0.0,-0.015,102.0,101.0,100.0,13.4,1505.2,343.0,-0.8,1.8,2471.384,13.29,0.034,90.0
2023-05-14T06:22:03,42.805,6.029,0.039,0.008,-0.025,100.0,100.0,102.0,13.4,1505.2,323.7,-0.8,1.8,2471.313,13.29,0.039,78.4
2023-05-14T06:25:03,42.805,6.029,0.012,0.01,-0.066,100.0,101.0,102.0,13.4,1505.2,326.9,-0.8,1.8,2471.347,13.29,0.015,50.2
2023-05-14T06:28:03,42.805,6.029,0.024,-0.005,-0.042,102.0,100.0,100.0,13.4,1505.2,317.6,-0.8,1.8,2471.339,13.29,0.024,101.8
2023-05-14T06:31:03,42.805,6.029,0.019,0.01,0.014,101.0,101.0,100.0,13.3,1505.2,336.6,-0.8,1.8,2471.36,13.29,0.021,62.2
2023-05-14T06:34:03,42.805,6.029,0.02,0.014,-0.035,101.0,101.0,101.0,13.4,1505.2,322.9,-0.8,1.8,2471.372,13.29,0.024,55.0
2023-05-14T06:37:03,42.805,6.029,0.031,-0.003,-0.013,101.0,101.0,101.0,13.4,1505.2,344.9,-0.8,1.8,2471.362,13.29,0.031,95.5
2023-05-14T06:40:03,42.805,6.029,0.003,0.021,-0.052,100.0,102.0,102.0,13.4,1505.2,332.4,-0.8,1.8,2471.311,13.29,0.021,8.1
2023-05-14T06:43:03,42.805,6.029,0.025,0.0,-0.017,102.0,102.0,101.0,13.4,1505.2,324.6,-0.8,1.8,2471.334,13.29,0.025,90.0
2023-05-14T06:46:03,42.805,6.029,0.022,0.025,-0.003,101.0,101.0,100.0,13.4,1505.2,327.5,-0.7,1.8,2471.35,13.29,0.033,41.3
2023-05-14T06:49:03,42.805,6.029,0.029,-0.011,-0.019,101.0,100.0,100.0,13.4,1505.2,328.3,-0.8,1.8,2471.348,13.29,0.031,110.8
2023-05-14T06:52:03,42.805,6.029,0.002,0.002,-0.02,101.0,101.0,101.0,13.4,1505.2,328.5,-0.7,1.8,2471.305,13.29,0.002,45.0
2023-05-14T06:55:03,42.805,6.029,0.033,-0.002,-0.036,103.0,100.0,101.0,13.4,1505.2,333.9,-0.8,1.8,2471.343,13.29,0.033,93.5
2023-05-14T06:58:03,42.805,6.029,0.012,-0.001,-0.012,103.0,102.0,100.0,13.4,1505.2,340.1,-0.8,1.8,2471.332,13.29,0.012,94.8
2023-05-14T07:04:03,42.805,6.029,0.043,0.027,0.013,101.0,101.0,100.0,13.4,1505.2,323.1,-0.8,1.8,2471.344,13.28,0.05,57.9
2023-05-14T07:07:03,42.805,6.029,0.039,-0.021,-0.026,101.0,102.0,101.0,13.4,1505.2,341.2,-0.7,1.8,2471.379,13.28,0.044,118.3
2023-05-14T07:10:03,42.805,6.029,0.018,0.006,-0.02,101.0,101.0,101.0,13.4,1505.2,326.0,-0.8,1.8,2471.359,13.28,0.018,71.6
2023-05-14T07:13:03,42.805,6.029,0.023,0.01,-0.019,103.0,102.0,101.0,13.4,1505.2,334.4,-0.8,1.8,2471.355,13.29,0.025,66.5
2023-05-14T07:16:03,42.805,6.029,0.018,0.006,-0.046,101.0,102.0,100.0,13.4,1505.2,334.4,-0.7,1.8,2471.334,13.29,0.018,71.6
2023-05-14T07:19:03,42.805,6.029,0.028,0.023,0.002,102.0,103.0,99.0,13.3,1505.2,334.7,-0.8,1.8,2471.324,13.29,0.036,50.6
2023-05-14T07:22:03,42.805,6.029,0.023,-0.013,-0.053,101.0,101.0,100.0,13.4,1505.2,336.0,-0.7,1.8,2471.325,13.29,0.026,119.5
2023-05-14T07:25:03,42.805,6.029,0.038,-0.009,-0.044,101.0,101.0,100.0,13.4,1505.2,328.1,-0.8,1.8,2471.311,13.29,0.039,103.3
2023-05-14T07:28:03,42.805,6.029,0.036,0.001,-0.047,101.0,102.0,100.0,13.4,1505.2,323.5,-0.7,1.8,2471.318,13.29,0.036,88.4
2023-05-14T07:31:03,42.805,6.029,0.03,0.003,-0.023,100.0,101.0,101.0,13.4,1505.2,323.7,-0.7,1.8,2471.321,13.29,0.03,84.3
2023-05-14T07:34:03,42.805,6.029,0.033,0.003,0.012,100.0,100.0,100.0,13.4,1505.2,326.0,-0.8,1.8,2471.339,13.29,0.033,84.8
2023-05-14T07:37:03,42.805,6.029,0.014,-0.001,-0.009,101.0,101.0,100.0,13.4,1505.2,325.3,-0.8,1.8,2471.277,13.29,0.014,94.1
2023-05-14T07:40:03,42.805,6.029,0.001,-0.003,-0.04,101.0,101.0,100.0,13.4,1505.2,326.6,-0.8,1.8,2471.294,13.29,0.003,161.6
2023-05-14T07:43:03,42.805,6.029,0.009,-0.007,-0.027,101.0,100.0,101.0,13.4,1505.2,343.3,-0.8,1.8,2471.277,13.29,0.011,127.9
2023-05-14T07:46:03,42.805,6.029,0.046,-0.009,-0.027,100.0,102.0,101.0,13.4,1505.2,332.9,-0.8,1.8,2471.283,13.29,0.046,101.1
2023-05-14T07:49:03,42.805,6.029,0.033,0.008,-0.007,102.0,101.0,100.0,13.4,1505.2,336.5,-0.7,1.8,2471.287,13.29,0.033,76.4
2023-05-14T07:52:03,42.805,6.029,0.022,0.019,0.0,101.0,101.0,100.0,13.4,1505.2,344.2,-0.7,1.8,2471.274,13.29,0.029,49.2
2023-05-14T07:55:03,42.805,6.029,0.018,0.0,-0.027,100.0,101.0,100.0,13.4,1505.2,322.9,-0.8,1.8,2471.274,13.29,0.018,90.0
2023-05-14T07:58:03,42.805,6.029,0.046,0.015,-0.01,102.0,101.0,102.0,13.4,1505.2,335.9,-0.8,1.9,2471.255,13.29,0.048,71.9
2023-05-14T08:04:03,42.805,6.029,0.032,0.005,-0.001,101.0,102.0,100.0,13.4,1505.2,325.3,-0.8,1.8,2471.324,13.28,0.032,81.1
2023-05-14T08:07:03,42.805,6.029,0.009,0.026,0.011,101.0,102.0,100.0,13.4,1505.2,323.1,-0.8,1.8,2471.336,13.28,0.027,19.1
2023-05-14T08:10:03,42.805,6.029,0.01,0.01,-0.004,101.0,102.0,101.0,13.4,1505.2,319.8,-0.8,1.8,2471.299,13.29,0.014,45.0
2023-05-14T08:13:03,42.805,6.029,0.009,0.016,-0.014,101.0,101.0,101.0,13.4,1505.2,319.9,-0.8,1.8,2471.305,13.29,0.018,29.4
2023-05-14T08:16:03,42.805,6.029,-0.003,0.008,-0.006,101.0,101.0,100.0,13.4,1505.2,319.6,-0.8,1.8,2471.287,13.29,0.008,339.4
2023-05-14T08:19:03,42.805,6.029,0.009,-0.013,-0.036,101.0,101.0,101.0,13.4,1505.2,328.3,-0.8,1.8,2471.305,13.29,0.015,145.3
2023-05-14T08:22:03,42.805,6.029,0.019,0.007,-0.033,102.0,101.0,100.0,13.4,1505.2,320.5,-0.7,1.8,2471.288,13.29,0.02,69.8
2023-05-14T08:25:03,42.805,6.029,0.029,-0.004,-0.04,101.0,102.0,100.0,13.4,1505.2,332.5,-0.8,1.8,2471.289,13.29,0.029,97.8
2023-05-14T08:28:03,42.805,6.029,0.013,-0.002,-0.01,102.0,100.0,100.0,13.4,1505.2,343.9,-0.8,1.8,2471.248,13.29,0.013,98.7
2023-05-14T08:31:03,42.805,6.029,0.007,-0.008,-0.038,102.0,101.0,100.0,13.4,1505.2,325.4,-0.7,1.8,2471.313,13.29,0.01,138.8
2023-05-14T08:34:03,42.805,6.029,0.027,0.017,-0.005,101.0,102.0,100.0,13.4,1505.2,333.8,-0.8,1.8,2471.245,13.29,0.031,57.8
2023-05-14T08:37:03,42.805,6.029,0.037,-0.013,-0.038,101.0,102.0,101.0,13.4,1505.2,328.2,-0.7,1.8,2471.281,13.29,0.039,109.4
2023-05-14T08:40:03,42.805,6.029,0.021,0.016,-0.021,101.0,101.0,101.0,13.4,1505.2,331.4,-0.7,1.8,2471.294,13.29,0.026,52.7
2023-05-14T08:43:03,42.805,6.029,0.029,0.005,0.005,101.0,101.0,100.0,13.4,1505.2,330.4,-0.8,1.8,2471.279,13.29,0.029,80.2
2023-05-14T08:46:03,42.805,6.029,0.033,0.006,-0.036,101.0,101.0,101.0,13.4,1505.2,335.4,-0.8,1.8,2471.261,13.29,0.033,79.7
2023-05-14T08:49:03,42.805,6.029,0.033,0.005,-0.013,102.0,102.0,101.0,13.4,1505.2,342.3,-0.7,1.8,2471.253,13.29,0.033,81.4
2023-05-14T08:52:03,42.805,6.029,0.016,0.001,-0.027,101.0,102.0,100.0,13.4,1505.2,320.4,-0.8,1.8,2471.28,13.29,0.016,86.4
2023-05-14T08:55:03,42.805,6.029,0.007,0.012,-0.035,101.0,101.0,100.0,13.4,1505.2,327.4,-0.8,1.8,2471.254,13.29,0.013,30.3
2023-05-14T08:58:03,42.805,6.029,0.015,-0.002,-0.053,101.0,100.0,101.0,13.4,1505.2,346.2,-0.7,1.9,2471.226,13.29,0.015,97.6
2023-05-14T09:04:03,42.805,6.029,0.015,0.019,-0.002,101.0,101.0,101.0,13.4,1505.2,330.1,-0.7,1.8,2471.322,13.28,0.024,38.3
2023-05-14T09:07:03,42.805,6.029,0.022,0.003,-0.013,101.0,101.0,101.0,13.3,1505.2,344.9,-0.8,1.8,2471.267,13.28,0.022,82.2
2023-05-14T09:10:03,42.805,6.029,0.042,0.012,0.023,102.0,101.0,101.0,13.4,1505.2,338.8,-0.7,1.8,2471.271,13.28,0.043,74.1
2023-05-14T09:13:03,42.805,6.029,0.037,0.017,-0.018,102.0,100.0,101.0,13.4,1505.2,331.3,-0.8,1.8,2471.246,13.29,0.04,65.3
2023-05-14T09:16:03,42.805,6.029,0.022,0.022,0.002,100.0,101.0,101.0,13.4,1505.2,334.9,-0.8,1.8,2471.275,13.29,0.031,45.0
2023-05-14T09:19:03,42.805,6.029,0.024,0.002,-0.019,99.0,102.0,101.0,13.4,1505.2,338.2,-0.8,1.8,2471.256,13.29,0.024,85.2
2023-05-14T09:22:03,42.805,6.029,0.019,0.018,-0.023,101.0,100.0,100.0,13.4,1505.2,328.5,-0.8,1.8,2471.234,13.29,0.026,46.5
2023-05-14T09:25:03,42.805,6.029,-0.004,0.007,-0.055,101.0,101.0,100.0,13.4,1505.2,324.4,-0.7,1.8,2471.224,13.29,0.008,330.3
2023-05-14T09:28:03,42.805,6.029,0.025,-0.004,-0.059,100.0,102.0,101.0,13.4,1505.2,324.3,-0.7,1.8,2471.24,13.29,0.025,99.1
2023-05-14T09:31:03,42.805,6.029,0.019,0.001,-0.007,101.0,101.0,102.0,13.4,1505.2,344.3,-0.8,1.8,2471.217,13.29,0.019,87.0
2023-05-14T09:34:03,42.805,6.029,0.03,0.011,0.002,101.0,101.0,100.0,13.4,1505.2,321.7,-0.8,1.8,2471.26,13.29,0.031,69.9
2023-05-14T09:37:03,42.805,6.029,0.029,0.004,-0.022,101.0,102.0,100.0,13.4,1505.2,338.0,-0.8,1.8,2471.246,13.29,0.029,82.2
2023-05-14T09:40:03,42.805,6.029,-0.004,0.011,-0.02,102.0,101.0,100.0,13.4,1505.2,332.1,-0.7,1.8,2471.253,13.29,0.011,340.0
2023-05-14T09:43:03,42.805,6.029,0.028,0.002,-0.011,101.0,102.0,100.0,13.4,1505.2,332.5,-0.8,1.8,2471.216,13.29,0.028,85.9
2023-05-14T09:46:03,42.805,6.029,0.027,0.005,-0.032,102.0,101.0,101.0,13.4,1505.2,337.6,-0.8,1.8,2471.224,13.29,0.027,79.5
2023-05-14T09:49:03,42.805,6.029,0.032,0.014,0.023,101.0,101.0,101.0,13.4,1505.2,348.0,-0.7,1.8,2471.237,13.29,0.034,66.4
2023-05-14T09:52:03,42.805,6.029,0.023,0.025,0.019,102.0,101.0,100.0,13.4,1505.2,320.1,-0.8,1.8,2471.212,13.29,0.033,42.6
2023-05-14T09:55:03,42.805,6.029,0.041,0.021,0.002,101.0,100.0,101.0,13.4,1505.2,326.6,-0.8,1.8,2471.207,13.29,0.046,62.9
2023-05-14T09:58:03,42.805,6.029,-0.005,-0.004,-0.056,102.0,100.0,100.0,13.4,1505.2,341.5,-0.8,1.8,2471.241,13.29,0.006,231.3